This demonstration page uses our WeatherBlox Daily Observations layout. Learn more.

Left ArrowRight Arrow

40.97296, -117.73568

Hourly Observations for August 26, 2016

Temp ( °F °C ) Dew Point ( °F °C ) Humidity (%) Winds ( mph kmh ) Pressure ( in mb ) Visibility ( mi km ) Precip ( " mm )
12:56 am 00:56 Clear 46 7.8 18 -7.8 32 32 S 3 6 29.93 1014 10 16 0.00 0.00
1:56 am 01:56 Clear 44 6.7 18 -7.8 35 35 SE 8 13 29.94 1014 10 16 0.00 0.00
2:56 am 02:56 Clear 42 5.6 18 -7.8 38 38 SSE 8 13 29.95 1014 10 16 0.00 0.00
3:56 am 03:56 Clear 40 4.4 16 -8.9 38 38 SSE 7 11 29.95 1014 10 16 0.00 0.00
4:56 am 04:56 Clear 42 5.6 19 -7.2 40 40 SSE 8 13 29.94 1014 10 16 0.00 0.00
5:56 am 05:56 Clear 39 3.9 20 -6.7 46 46 SSE 7 11 29.95 1014 10 16 0.00 0.00
6:56 am 06:56 Sunny 42 5.6 22 -5.6 45 45 ENE 3 6 29.96 1015 10 16 0.00 0.00
7:56 am 07:56 Sunny 56 13.3 25 -3.9 30 30 Calm 29.96 1015 10 16 0.00 0.00
8:56 am 08:56 Sunny 64 17.8 25 -3.9 23 23 NE 3 6 29.98 1015 10 16 0.00 0.00
9:56 am 09:56 Sunny 70 21.1 26 -3.3 19 19 VRB 3 6 29.96 1015 10 16 0.00 0.00
10:56 am 10:56 Sunny 77 25 26 -3.3 15 15 VRB 3 6 29.94 1014 10 16 0.00 0.00
11:56 am 11:56 Sunny 81 27.2 25 -3.9 13 13 NNE 6 9 29.94 1014 10 16 0.00 0.00
12:56 pm 12:56 Sunny 83 28.3 23 -5 11 11 VRB 3 6 29.92 1013 10 16 0.00 0.00
1:56 pm 13:56 Sunny 85 29.4 24 -4.4 11 11 VRB 6 9 29.91 1013 10 16 0.00 0.00
2:56 pm 14:56 Sunny 87 30.6 23 -5 9 9 NW 14 22 29.88 1012 10 16 0.00 0.00
3:56 pm 15:56 Sunny 87 30.6 22 -5.6 9 9 W 14 22 29.87 1012 10 16 0.00 0.00
4:56 pm 16:56 Sunny 87 30.6 21 -6.1 9 9 undefined N/A 29.86 1011 10 16 0.00 0.00
5:56 pm 17:56 Sunny 86 30 21 -6.1 9 9 W 12 19 29.86 1011 10 16 0.00 0.00
6:56 pm 18:56 Sunny 83 28.3 22 -5.6 10 10 NW 8 13 29.86 1011 10 16 0.00 0.00
7:56 pm 19:56 Clear 73 22.8 25 -3.9 17 17 E 5 7 29.85 1011 10 16 0.00 0.00
8:56 pm 20:56 Clear 63 17.2 20 -6.7 19 19 Calm 29.88 1012 10 16 0.00 0.00
9:56 pm 21:56 Clear 59 15 19 -7.2 21 21 N 3 6 29.88 1012 10 16 0.00 0.00
10:56 pm 22:56 Clear 56 13.3 23 -5 28 28 SSE 6 9 29.88 1012 10 16 0.00 0.00
11:56 pm 23:56 Clear 57 13.9 22 -5.6 26 26 ENE 6 9 29.88 1012 10 16 0.00 0.00

Powered by AerisWeather